Date String (YYYY-MM-DD hh:mm:ss) UTC,Instrument flags,Ambient pressure (hPa),Sample flow (lpm),Bypass flow (lpm),Sample temperature (°C),Ambient temperature (°C),ASC tube jacket temperature (°C),LED temperature (°C),Box temperature (°C),Sample RH (%),Span deviation,Mass concentration (μg/m³),Mass concentration (μg/m³),Mass concentration (μg/m³)
DateTimeUTC,F1_M11,P_M11,Q1_M11,Q2_M11,T1_M11,T2_M11,T3_M11,T4_M11,T5_M11,U1_M11,ZSPAN_M11,X2_M11,X0_M11,X1_M11
2023-01-24 12:00:00,,0823.7,5.00,0.00,21.9,20.9,00.0,30.5,23.5,12.9,-001.7,0020.96,0023.51,0020.64
2023-01-24 12:01:00,,0823.8,5.00,0.00,21.8,20.7,00.0,30.5,23.5,12.9,-001.8,0020.94,0023.43,0020.65
2023-01-24 12:02:00,,0823.8,5.02,0.00,21.8,20.6,00.0,30.5,23.5,12.7,-001.8,0020.92,0024.13,0020.63
2023-01-24 12:03:00,,0823.8,5.00,0.00,21.8,20.5,00.0,30.5,23.5,12.7,-001.9,0020.92,0024.36,0020.62
2023-01-24 12:04:00,,0823.8,4.99,0.00,21.8,20.4,00.0,30.5,23.5,12.6,-001.9,0020.91,0024.42,0020.60
2023-01-24 12:05:00,,0823.9,5.00,0.00,21.8,20.3,00.0,30.5,23.5,12.6,-002.0,0020.90,0024.52,0020.58
2023-01-24 12:06:00,,0823.9,5.00,0.00,21.8,20.3,00.0,30.5,23.5,12.7,-002.0,0020.84,0024.45,0020.54
2023-01-24 12:07:00,,0823.9,4.98,0.00,21.8,20.3,00.0,30.5,23.5,12.7,-001.9,0020.80,0024.33,0020.52
2023-01-24 12:08:00,,0823.9,5.00,0.00,21.8,20.2,00.0,30.5,23.5,12.8,-001.9,0020.79,0024.30,0020.50
2023-01-24 12:09:00,,0824.0,5.00,0.00,21.8,20.2,00.0,30.5,23.4,12.8,-001.8,0020.81,0024.35,0020.51
2023-01-24 12:10:00,,0824.0,5.00,0.00,21.8,20.2,00.0,30.5,23.4,12.9,-001.9,0020.83,0024.39,0020.51
2023-01-24 12:11:00,,0824.0,5.00,0.00,21.8,21.0,00.0,30.5,23.6,12.9,-001.9,0020.80,0024.35,0020.48
2023-01-24 12:12:00,,0824.0,5.00,0.00,21.9,22.1,00.0,30.5,23.8,12.9,-002.0,0020.75,0024.29,0020.42
2023-01-24 12:13:00,,0823.9,4.99,0.00,22.0,22.7,00.0,30.6,24.1,12.8,-001.9,0020.73,0023.52,0020.40
2023-01-24 12:14:00,,0823.9,4.98,0.00,22.1,22.4,00.0,30.6,24.1,12.8,-001.8,0020.65,0023.22,0020.34
2023-01-24 12:15:00,,0823.9,5.00,0.00,22.1,22.0,00.0,30.7,24.0,12.8,-001.8,0020.57,0023.03,0020.28
2023-01-24 12:16:00,,0824.0,5.01,0.00,22.1,21.6,00.0,30.7,23.9,12.8,-001.9,0020.52,0022.84,0020.25
2023-01-24 12:17:00,,0824.0,4.99,0.00,22.1,21.3,00.0,30.7,23.9,12.8,-001.9,0020.47,0022.73,0020.20
2023-01-24 12:18:00,,0824.0,4.99,0.00,22.1,21.0,00.0,30.7,23.8,12.8,-001.9,0020.40,0022.61,0020.14
2023-01-24 12:19:00,,0824.0,5.00,0.00,22.1,20.8,00.0,30.7,23.8,12.8,-001.8,0020.33,0022.51,0020.08
2023-01-24 12:20:00,,0824.0,5.00,0.00,22.1,20.6,00.0,30.7,23.7,12.9,-001.8,0020.28,0022.42,0020.02
2023-01-24 12:21:00,,0824.0,4.99,0.00,22.0,20.5,00.0,30.7,23.7,12.9,-001.8,0020.19,0022.24,0019.96
2023-01-24 12:22:00,,0824.0,4.99,0.00,22.0,20.5,00.0,30.7,23.7,12.9,-001.8,0020.16,0022.19,0019.94
2023-01-24 12:23:00,,0824.1,5.00,0.00,22.0,20.4,00.0,30.7,23.7,12.8,-001.8,0020.19,0022.33,0019.95
2023-01-24 12:24:00,,0824.0,4.99,0.00,22.0,20.4,00.0,30.7,23.7,12.9,-001.9,0020.16,0022.28,0019.92
2023-01-24 12:25:00,,0824.1,5.02,0.00,22.0,20.4,00.0,30.7,23.7,12.9,-002.0,0020.19,0022.31,0019.95
2023-01-24 12:26:00,,0824.1,5.01,0.00,22.0,20.4,00.0,30.7,23.6,12.9,-002.0,0020.23,0022.42,0019.95
2023-01-24 12:27:00,,0824.1,4.98,0.00,22.0,20.6,00.0,30.7,23.7,12.9,-002.1,0020.23,0022.61,0019.94
2023-01-24 12:28:00,,0824.1,5.01,0.00,22.0,21.6,00.0,30.7,23.9,12.8,-002.2,0020.25,0022.67,0019.96
2023-01-24 12:29:00,,0824.1,5.00,0.00,22.1,22.5,00.0,30.7,24.1,12.8,-002.2,0020.27,0022.76,0019.96
2023-01-24 12:30:00,,0824.1,5.00,0.00,22.3,22.8,00.0,30.8,24.3,12.7,-002.1,0020.29,0022.87,0019.96
2023-01-24 12:31:00,,0824.2,4.99,0.00,22.3,22.3,00.0,30.8,24.3,12.6,-002.1,0020.26,0022.85,0019.94
2023-01-24 12:32:00,,0824.3,5.01,0.00,22.3,21.9,00.0,30.9,24.2,12.6,-002.3,0020.26,0022.94,0019.93
2023-01-24 12:33:00,,0824.3,5.01,0.00,22.3,21.6,00.0,30.9,24.1,12.6,-002.3,0020.27,0022.93,0019.95
2023-01-24 12:34:00,,0824.4,5.00,0.00,22.3,21.4,00.0,30.9,24.1,12.6,-002.2,0020.25,0022.82,0019.95
2023-01-24 12:35:00,,0824.3,4.99,0.00,22.3,21.2,00.0,30.9,24.0,12.6,-002.2,0020.26,0022.85,0019.95
2023-01-24 12:36:00,,0824.3,5.00,0.00,22.3,21.0,00.0,30.9,24.0,12.6,-002.3,0020.24,0022.83,0019.94
2023-01-24 12:37:00,,0824.3,4.99,0.00,22.3,20.9,00.0,30.9,24.0,12.5,-002.4,0020.21,0022.78,0019.94
2023-01-24 12:38:00,,0824.3,4.99,0.00,22.3,20.8,00.0,30.9,24.0,12.5,-002.4,0020.15,0022.53,0019.91
2023-01-24 12:39:00,,0824.3,5.01,0.00,22.2,20.7,00.0,30.9,23.9,12.6,-002.3,0020.07,0022.49,0019.83
2023-01-24 12:40:00,,0824.3,5.00,0.00,22.2,20.7,00.0,30.9,23.9,12.6,-002.2,0020.03,0022.59,0019.80
2023-01-24 12:41:00,,0824.3,4.99,0.00,22.2,20.6,00.0,30.9,23.9,12.6,-002.4,0019.99,0022.61,0019.75
2023-01-24 12:42:00,,0824.4,4.98,0.00,22.2,20.6,00.0,30.9,23.9,12.7,-002.5,0019.98,0022.76,0019.69
2023-01-24 12:43:00,,0824.3,5.01,0.00,22.2,20.6,00.0,30.9,23.9,12.8,-002.5,0019.88,0022.64,0019.57
2023-01-24 12:44:00,,0824.4,5.01,0.00,22.2,20.5,00.0,30.9,23.8,12.8,-002.5,0019.75,0022.56,0019.42
2023-01-24 12:45:00,,0824.4,4.99,0.00,22.1,20.5,00.0,30.9,23.8,12.8,-002.6,0019.61,0022.48,0019.27
2023-01-24 12:46:00,,0824.4,5.00,0.00,22.1,20.9,00.0,30.9,23.9,12.8,-002.6,0019.46,0022.33,0019.11
2023-01-24 12:47:00,,0824.5,5.00,0.00,22.2,21.9,00.0,30.9,24.1,12.7,-002.7,0019.33,0022.33,0018.95
2023-01-24 12:48:00,,0824.6,5.00,0.00,22.3,22.8,00.0,30.9,24.3,12.7,-002.7,0019.24,0022.31,0018.81
2023-01-24 12:49:00,,0824.5,4.98,0.00,22.4,22.6,00.0,31.0,24.4,12.7,-002.5,0019.19,0022.27,0018.74
2023-01-24 12:50:00,,0824.6,5.01,0.00,22.4,22.2,00.0,31.0,24.3,12.6,-002.5,0019.16,0022.30,0018.67
2023-01-24 12:51:00,,0824.5,5.00,0.00,22.4,21.8,00.0,31.0,24.3,12.6,-002.6,0019.10,0022.14,0018.59
2023-01-24 12:52:00,,0824.5,5.00,0.00,22.4,21.5,00.0,31.0,24.2,12.6,-002.4,0019.01,0021.96,0018.51
2023-01-24 12:53:00,,0824.4,5.01,0.00,22.4,21.2,00.0,31.0,24.1,12.6,-002.4,0018.90,0021.69,0018.45
2023-01-24 12:54:00,,0824.5,5.01,0.00,22.4,21.0,00.0,31.1,24.1,12.7,-002.4,0018.87,0021.66,0018.45
2023-01-24 12:55:00,,0824.4,5.00,0.00,22.3,20.8,00.0,31.1,24.0,12.6,-002.4,0018.82,0021.58,0018.41
2023-01-24 12:56:00,,0824.4,5.01,0.00,22.3,20.7,00.0,31.1,23.9,12.6,-002.4,0018.78,0021.46,0018.40
2023-01-24 12:57:00,,0824.4,5.01,0.00,22.3,20.5,00.0,31.0,23.9,12.6,-002.1,0018.77,0021.45,0018.40
2023-01-24 12:58:00,,0824.5,4.99,0.00,22.2,20.5,00.0,31.0,23.9,12.6,-002.0,0018.77,0021.39,0018.43
2023-01-24 12:59:00,,0824.6,4.99,0.00,22.2,20.3,00.0,31.0,23.8,12.7,-001.9,0018.73,0021.25,0018.42
